Bellingham, Washington, United States (98225)
Lat: 48.76N, Lon: 122.49W
Wx Zone: WAZ503
Local Info
Past Weather Observations for Sunday, April 12, 2015

NOTE: This archive is for the closest National Weather Service station to Bellingham. Information may differ from the station used for current weather conditions.

Click here for Long-term Archive

Time Weather Temperature Dewpoint Humidity Pressure Winds Precip Visibility
23:53
Clear
43°F / 6°C 39°F / 4°C 87% 30.01 in
(1016 mb)
N 4.6 mph
(N 7 kph)
- 10SM
22:53
Partly Cloudy
43°F / 6°C 39°F / 4°C 87% 30.04 in
(1017 mb)
N 5.8 mph
(N 9 kph)
- 10SM
21:53
Overcast
45°F / 7°C 43°F / 6°C 93% 30.06 in
(1018 mb)
N 5.8 mph
(N 9 kph)
0.00 in
(0.00 mm)
10SM
20:53
Overcast
Light Rain
46°F / 8°C 43°F / 6°C 87% 30.09 in
(1019 mb)
NW 4.6 mph
(NW 7 kph)
0.00 in
(0.00 mm)
10SM
19:53
Overcast
Light Rain
46°F / 8°C 39°F / 4°C 76% 30.12 in
(1020 mb)
NE 3.5 mph
(NE 6 kph)
0.00 in
(0.00 mm)
10SM
18:53
Overcast
48°F / 9°C 37°F / 3°C 66% 30.12 in
(1020 mb)
Calm 0.00 in
(0.00 mm)
10SM
17:53
Overcast
Light Rain
52°F / 11°C 34°F / 1°C 50% 30.12 in
(1020 mb)
SSE 9.2 mph
(SSE 15 kph)
0.00 in
(0.00 mm)
10SM
16:53
Overcast
54°F / 12°C 28°F / -2°C 38% 30.12 in
(1020 mb)
Calm - 10SM
15:53
Overcast
54°F / 12°C 32°F / 0°C 44% 30.15 in
(1021 mb)
S 6.9 mph
(S 11 kph)
- 10SM
14:53
Overcast
54°F / 12°C 34°F / 1°C 47% 30.15 in
(1021 mb)
S 8.1 mph
(S 13 kph)
- 10SM
13:53
Mostly Cloudy
52°F / 11°C 34°F / 1°C 50% 30.18 in
(1022 mb)
S 11.5 mph
(S 19 kph)
- 10SM
12:53
Overcast
52°F / 11°C 36°F / 2°C 54% 30.18 in
(1022 mb)
SSE 8.1 mph
(SSE 13 kph)
- 10SM
11:53
Mostly Cloudy
52°F / 11°C 37°F / 3°C 58% 30.18 in
(1022 mb)
S 10.4 mph
(S 17 kph)
- 10SM
10:53
Overcast
50°F / 10°C 39°F / 4°C 67% 30.21 in
(1023 mb)
Variable 6.9 mph
(Variable 11 kph)
- 10SM
09:53
Mostly Cloudy
46°F / 8°C 39°F / 4°C 76% 30.21 in
(1023 mb)
SE 8.1 mph
(SE 13 kph)
0.00 in
(0.00 mm)
10SM
08:53
Overcast
45°F / 7°C 37°F / 3°C 76% 30.21 in
(1023 mb)
SSE 10.4 mph
(SSE 17 kph)
0.00 in
(0.00 mm)
10SM
07:53
Overcast
Light Rain
45°F / 7°C 37°F / 3°C 76% 30.21 in
(1023 mb)
S 11.5 mph
(S 19 kph)
0.00 in
(0.00 mm)
10SM
07:43
Overcast
45°F / 7°C 37°F / 3°C 76% 30.21 in
(1023 mb)
SSE 13.8 mph
(SSE 22 kph)
- 10SM
06:53
Mostly Cloudy
45°F / 7°C 39°F / 4°C 81% 30.18 in
(1022 mb)
SSE 10.4 mph
(SSE 17 kph)
- 10SM
06:44
Overcast
45°F / 7°C 39°F / 4°C 81% 30.18 in
(1022 mb)
S 11.5 mph
(S 19 kph)
- 10SM
05:53
Overcast
45°F / 7°C 36°F / 2°C 71% 30.18 in
(1022 mb)
S 6.9 mph
(S 11 kph)
- 10SM
04:53
Clear
39°F / 4°C 36°F / 2°C 87% 30.18 in
(1022 mb)
Calm - 10SM
03:53
Mostly Cloudy
43°F / 6°C 36°F / 2°C 76% 30.18 in
(1022 mb)
SSE 3.5 mph
(SSE 6 kph)
- 10SM
02:53
Clear
43°F / 6°C 34°F / 1°C 71% 30.15 in
(1021 mb)
SSE 5.8 mph
(SSE 9 kph)
- 10SM
01:53
Clear
45°F / 7°C 32°F / 0°C 61% 30.12 in
(1020 mb)
SSE 4.6 mph
(SSE 7 kph)
- 10SM
00:53
Clear
43°F / 6°C 32°F / 0°C 66% 30.12 in
(1020 mb)
Calm - 10SM
Time Weather Temperature Dewpoint Humidity Pressure Winds Precip Visibility


Weather for websites

WeatherForYou.com, LLC is not responsible for any damages or problems caused by this service. Current weather conditions are obtained from the closest station including government and personal stations which may have varying degrees of accuracy. Weather forecasts are derived from the NOAA NDFD. Like all things, this site belongs to Jesus Christ... He just trusts me to maintain it. If you have any questions or comments email webmaster@weatherforyou.com

Copyright © 2015, WeatherForYou.com LLC. All rights reserved.